SM5FGQ-2 Weather Reports


Display with metric or nautical units.
time (UTC)temp
F
wind
direction
speed
MPH
gust
MPH
rain 1hr
in
rain 24hr
in
rain mn
in
humidity
%
barometer
mb
20260906060035 49 222 1.0 4.0 0.00 0.04 0.00 99 1009.0
20260906053025 47 114 1.0 3.0 0.00 0.04 0.00 99 1008.6
20260906050114 46 102 1.0 3.0 0.00 0.04 0.00 99 1008.2
20260906043104 46 112 1.0 3.0 0.00 0.04 0.00 99 1007.8
20260906040055 46 123 1.0 3.0 0.00 0.04 0.00 99 1007.4
20260906033045 46 101 1.0 2.0 0.00 0.04 0.00 99 1007.1
20260906030035 46 95 1.0 2.0 0.00 0.04 0.00 98 1007.0
20260906023026 46 172 1.0 2.0 0.00 0.04 0.00 98 1006.6
20260906020116 47 138 0.0 2.0 0.00 0.04 0.00 99 1006.1
20260906013106 47 140 0.0 2.0 0.00 0.04 0.00 99 1005.8
20260906010056 48 108 1.0 3.0 0.00 0.04 0.00 99 1005.4
20260906003046 48 91 1.0 3.0 0.00 0.04 0.00 98 1005.0
20260906000036 48 117 1.0 3.0 0.00 0.04 0.00 98 1004.5
20260905233026 48 94 1.0 3.0 0.00 0.05 0.00 98 1004.1
20260905230016 48 94 1.0 3.0 0.00 0.05 0.00 98 1003.8
20260905223107 49 38 1.0 3.0 0.00 0.05 0.00 97 1003.3
20260905220056 49 97 1.0 3.0 0.00 0.05 0.00 97 1002.8
20260905213046 49 91 1.0 3.0 0.00 0.05 0.05 96 1002.4
20260905210036 49 96 1.0 3.0 0.00 0.05 0.05 95 1001.9
20260905203046 48 123 1.0 2.0 0.00 0.05 0.05 94 1001.5
20260905200017 49 180 0.0 1.0 0.00 0.05 0.05 94 1001.1
20260905193107 50 180 0.0 2.0 0.00 0.05 0.05 93 1000.8
20260905190119 50 180 0.0 1.0 0.00 0.05 0.05 92 1000.5
20260905183048 51 219 0.0 2.0 0.00 0.05 0.05 91 1000.3
20260905180038 52 225 0.0 1.0 0.00 0.05 0.05 90 999.8
20260905173048 54 228 0.0 2.0 0.00 0.05 0.05 87 999.6
20260905170019 55 225 0.0 2.0 0.03 0.05 0.05 82 999.2
20260905163108 56 267 1.0 3.0 0.04 0.05 0.05 78 999.0
20260905160058 61 304 4.0 12.0 0.01 0.02 0.02 69 998.7
20260905153048 61 266 2.0 4.0 0.00 0.01 0.01 68 998.4
20260905150038 61 230 0.0 5.0 0.00 0.01 0.01 69 998.0
20260905143030 61 305 2.0 6.0 0.00 0.01 0.01 66 997.8
20260905140018 62 317 1.0 6.0 0.00 0.01 0.01 65 997.6
20260905133108 61 326 3.0 6.0 0.00 0.01 0.01 68 997.5
20260905130058 62 321 3.0 7.0 0.00 0.01 0.01 63 997.3
20260905123110 63 278 3.0 6.0 0.00 0.01 0.01 62 997.1
20260905120039 63 280 2.0 7.0 0.00 0.01 0.01 61 996.9
20260905113028 61 301 3.0 8.0 0.00 0.01 0.01 64 996.8
20260905110018 63 289 3.0 8.0 0.00 0.01 0.01 64 996.4
20260905103109 62 267 2.0 6.0 0.00 0.01 0.01 66 996.2
20260905100059 62 285 2.0 6.0 0.00 0.01 0.01 68 996.1
20260905093049 61 272 2.0 5.0 0.00 0.03 0.01 71 996.0
20260905090039 59 275 2.0 4.0 0.00 0.09 0.01 75 995.8
20260905083029 57 299 2.0 5.0 0.00 0.16 0.01 78 995.5
20260905080019 57 267 2.0 4.0 0.00 0.22 0.01 79 995.1
20260905073109 56 280 2.0 5.0 0.00 0.22 0.01 82 994.8
20260905070101 55 271 2.0 5.0 0.00 0.22 0.01 84 994.5
20260905063048 54 285 2.0 6.0 0.00 0.24 0.01 85 994.2